Epoch 2007 June 29.0 TT = JDT 2454280.5
T 2007 July 2.65430 TT MPCW
q 2.7863366 (2000.0) P Q
n 0.08961929 Peri. 219.21511 +0.46670903 -0.87925146
a 4.9454034 Node 203.43841 +0.85972963 +0.47634112
e 0.4365805 Incl. 13.87592 +0.20747925 +0.00400049
P 11.00
From 48 observations 2006 Oct. 11-2017 Sept. 27, mean residual 0".3.